Location: Rounton
(54.4000°N, 1.3500°W)
Time: 17:29:00
(UTC+00:00)

Tiros 1 - Pass Details

Date: 08 December 2021
Orbit: 629 x 664 km, 48.4° (Epoch: 19 January)

Event Time Altitude Azimuth Distance (km) Brightness Sun altitude
Rises 17:06:02 0° 212° (SSW) 2,910 11.5 -11.3°
Reaches altitude 10° 17:08:51 10° 195° (SSW) 2,009 10.2 -11.6°
Maximum altitude 17:12:09 19° 150° (SSE) 1,490 8.9 -12.1°
Enters shadow 17:15:10 11° 107° (ESE) 1,946 9.1 -12.5°
